Stanley, ND

9:10 PM CDT on March 22, 2017 (GMT -0500)
Stanley

Weather History for K08D - October, 2013

Change the Weather History Date:

Wednesday, October 16, 2013

  Actual Average (KMIB) Record (KMIB)
Temperature  
Mean Temperature 42 °F -  
Max Temperature 55 °F 52 °F 102 °F (1999)
Min Temperature 30 °F 30 °F 15 °F (2001)
Degree Days  
Heating Degree Days 22    
Moisture  
Dew Point 35 °F    
Average Humidity 81    
Maximum Humidity 100    
Minimum Humidity 51    
Precipitation  
Precipitation 0.00 in - - ()
Sea Level Pressure  
Sea Level Pressure 29.92 in    
Wind  
Wind Speed 9 mph (WNW)    
Max Wind Speed 20 mph    
Max Gust Speed 29 mph    
Visibility 10 miles    
Events Rain    
Averages and records for this station are not official NWS values.
T = Trace of Precipitation, MM = Missing Value Source: NWS Daily Summary

Daily Weather History Graph

Daily Weather History Graph

Search for Another Location

Airport or City:

Trip Planner

Search our weather history database for the weather conditions in past years. The results will help you decide how hot, cold, wet, or windy it might be!

Date:

Astronomy

Oct. 16, 2013 Rise Set
Actual Time 8:11 AM CDT 6:58 PM CDT
Civil Twilight 7:39 AM CDT 7:29 PM CDT
Nautical Twilight 7:03 AM CDT 8:05 PM CDT
Astronomical Twilight 6:27 AM CDT 8:41 PM CDT
Moon 5:46 PM CDT (10/16) 5:31 AM CDT (10/16)
Length of Visible Light 11h 50m
Length of Day
10h 46m
Waxing Gibbous, 94% of the Moon is Illuminated
Oct 16
Waxing Gibbous
Oct 18
Full
Oct 26
Last Quarter
Nov 3
New
Nov 9
First Quarter

Hourly Weather History & Observations

Time (CDT) Temp. Windchill Dew Point Humidity Pressure Visibility Wind Dir Wind Speed Gust Speed Precip Events Conditions
12:15 AM 35.6 °F 32.8 °F 32.0 °F 87% 30.01 in 10.0 mi WNW 3.5 mph - N/A   Scattered Clouds
12:35 AM 32.0 °F 24.2 °F 30.2 °F 93% 30.01 in 10.0 mi West 9.2 mph - N/A   Partly Cloudy
12:55 AM 32.0 °F 27.5 °F 32.0 °F 100% 30.01 in 10.0 mi SW 4.6 mph - N/A   Clear
1:15 AM 32.0 °F 27.5 °F 32.0 °F 100% 30.00 in 10.0 mi WSW 4.6 mph - N/A   Clear
1:35 AM 32.0 °F 26.4 °F 30.2 °F 93% 29.99 in 10.0 mi WSW 5.8 mph - N/A   Clear
1:55 AM 32.0 °F 25.6 °F 30.2 °F 93% 29.99 in 10.0 mi WSW 6.9 mph - N/A   Clear
2:15 AM 32.0 °F 24.2 °F 28.4 °F 87% 29.98 in 10.0 mi West 9.2 mph - N/A   Clear
2:35 AM 32.0 °F 27.5 °F 30.2 °F 93% 29.98 in 10.0 mi WSW 4.6 mph - N/A   Clear
2:55 AM 32.0 °F 27.5 °F 30.2 °F 93% 29.97 in 10.0 mi SW 4.6 mph - N/A   Clear
3:15 AM 32.0 °F 25.6 °F 30.2 °F 93% 29.97 in 10.0 mi WSW 6.9 mph - N/A   Clear
3:35 AM 32.0 °F 24.2 °F 30.2 °F 93% 29.96 in 10.0 mi West 9.2 mph - N/A   Clear
3:55 AM 32.0 °F 24.8 °F 30.2 °F 93% 29.95 in 10.0 mi West 8.1 mph - N/A   Clear
4:15 AM 32.0 °F 25.6 °F 32.0 °F 100% 29.94 in 10.0 mi West 6.9 mph - N/A   Clear
4:35 AM 32.0 °F 26.4 °F 30.2 °F 93% 29.94 in 10.0 mi West 5.8 mph - N/A   Clear
4:55 AM 30.2 °F 24.3 °F 30.2 °F 100% 29.93 in 10.0 mi West 5.8 mph - N/A   Clear
5:15 AM 30.2 °F 22.6 °F 30.2 °F 100% 29.93 in 10.0 mi West 8.1 mph - N/A   Clear
5:35 AM 32.0 °F 23.6 °F 32.0 °F 100% 29.92 in 10.0 mi West 10.4 mph - N/A   Clear
5:55 AM 32.0 °F 24.2 °F 32.0 °F 100% 29.92 in 10.0 mi West 9.2 mph - N/A   Clear
6:15 AM 32.0 °F 23.6 °F 32.0 °F 100% 29.91 in 10.0 mi West 10.4 mph - N/A   Clear
6:35 AM 32.0 °F 23.6 °F 32.0 °F 100% 29.91 in 10.0 mi West 10.4 mph - N/A   Clear
6:55 AM 32.0 °F 23.0 °F 32.0 °F 100% 29.90 in 10.0 mi West 11.5 mph - N/A   Clear
7:15 AM 32.0 °F 24.2 °F 32.0 °F 100% 29.90 in 10.0 mi West 9.2 mph - N/A   Clear
7:35 AM 32.0 °F 24.2 °F 32.0 °F 100% 29.89 in 10.0 mi West 9.2 mph - N/A   Clear
7:55 AM 32.0 °F 26.4 °F 32.0 °F 100% 29.89 in 10.0 mi WSW 5.8 mph - N/A   Clear
8:15 AM 32.0 °F 25.6 °F 32.0 °F 100% 29.89 in 10.0 mi SW 6.9 mph - N/A   Clear
8:35 AM 32.0 °F 24.2 °F 32.0 °F 100% 29.89 in 10.0 mi SW 9.2 mph - N/A   Clear
8:55 AM 32.0 °F 26.4 °F 32.0 °F 100% 29.89 in 10.0 mi WSW 5.8 mph - N/A   Clear
9:15 AM 33.8 °F 25.8 °F 33.8 °F 100% 29.89 in 10.0 mi West 10.4 mph - N/A   Clear
9:35 AM 37.4 °F 30.3 °F 35.6 °F 93% 29.89 in 10.0 mi West 10.4 mph - N/A   Clear
9:55 AM 39.2 °F 32.5 °F 35.6 °F 87% 29.89 in 10.0 mi West 10.4 mph - N/A   Clear
10:15 AM 39.2 °F 32.5 °F 35.6 °F 87% 29.89 in 10.0 mi West 10.4 mph 16.1 mph N/A   Clear
10:35 AM 41.0 °F 36.4 °F 35.6 °F 81% 29.89 in 10.0 mi West 6.9 mph - N/A   Clear
10:55 AM 41.0 °F 33.9 °F 35.6 °F 81% 29.89 in 10.0 mi WNW 12.7 mph 17.3 mph N/A   Clear
11:15 AM 44.6 °F 39.2 °F 35.6 °F 71% 29.89 in 10.0 mi WNW 10.4 mph - N/A   Clear
11:35 AM 44.6 °F 39.7 °F 35.6 °F 71% 29.89 in 10.0 mi West 9.2 mph - N/A   Clear
11:55 AM 46.4 °F 41.5 °F 33.8 °F 62% 29.89 in 10.0 mi WNW 10.4 mph - N/A   Clear
12:15 PM 46.4 °F 41.5 °F 35.6 °F 66% 29.89 in 10.0 mi NW 10.4 mph - N/A   Clear
12:35 PM 48.2 °F - 35.6 °F 62% 29.88 in 10.0 mi WNW 10.4 mph - N/A   Clear
12:55 PM 50.0 °F - 35.6 °F 58% 29.88 in 10.0 mi WNW 10.4 mph - N/A   Clear
1:15 PM 51.8 °F - 35.6 °F 54% 29.88 in 10.0 mi WNW 10.4 mph - N/A   Clear
1:35 PM 53.6 °F - 37.4 °F 54% 29.88 in 10.0 mi WNW 9.2 mph - N/A   Scattered Clouds
1:55 PM 55.4 °F - 37.4 °F 51% 29.87 in 10.0 mi West 10.4 mph - N/A   Partly Cloudy
2:15 PM 55.4 °F - 37.4 °F 51% 29.87 in 10.0 mi WNW 8.1 mph - N/A   Clear
2:35 PM 55.4 °F - 37.4 °F 51% 29.86 in 10.0 mi NNW 10.4 mph 18.4 mph N/A   Clear
2:55 PM 55.4 °F - 37.4 °F 51% 29.86 in 10.0 mi NNW 10.4 mph 21.9 mph N/A   Clear
3:15 PM 55.4 °F - 39.2 °F 54% 29.86 in 10.0 mi NNW 11.5 mph 19.6 mph N/A   Clear
3:35 PM 55.4 °F - 39.2 °F 54% 29.86 in 10.0 mi NW 12.7 mph 20.7 mph N/A   Mostly Cloudy
3:55 PM 55.4 °F - 39.2 °F 54% 29.86 in 10.0 mi NNW 11.5 mph 20.7 mph N/A   Mostly Cloudy
4:15 PM 53.6 °F - 39.2 °F 58% 29.86 in 10.0 mi North 13.8 mph 20.7 mph N/A   Scattered Clouds
4:35 PM 53.6 °F - 39.2 °F 58% 29.87 in 10.0 mi NNW 11.5 mph 17.3 mph N/A   Mostly Cloudy
4:55 PM 53.6 °F - 39.2 °F 58% 29.87 in 10.0 mi NNW 10.4 mph 17.3 mph N/A   Mostly Cloudy
5:15 PM 53.6 °F - 37.4 °F 54% 29.87 in 10.0 mi NNW 11.5 mph 19.6 mph N/A   Mostly Cloudy
5:35 PM 51.8 °F - 37.4 °F 58% 29.88 in 10.0 mi NNW 13.8 mph 19.6 mph N/A   Overcast
5:55 PM 50.0 °F - 35.6 °F 58% 29.88 in 10.0 mi NNW 12.7 mph 19.6 mph N/A   Overcast
6:15 PM 50.0 °F - 35.6 °F 58% 29.89 in 10.0 mi NNW 16.1 mph - N/A   Overcast
6:35 PM 48.2 °F - 35.6 °F 62% 29.89 in 10.0 mi North 13.8 mph 18.4 mph N/A   Overcast
6:55 PM 48.2 °F - 35.6 °F 62% 29.90 in 10.0 mi NNW 10.4 mph - N/A   Overcast
7:15 PM 46.4 °F 39.2 °F 32.0 °F 57% 29.90 in 10.0 mi North 18.4 mph 23.0 mph N/A   Overcast
7:35 PM 44.6 °F 39.2 °F 32.0 °F 61% 29.91 in 10.0 mi NNW 10.4 mph 19.6 mph N/A   Overcast
7:55 PM 44.6 °F 38.8 °F 33.8 °F 66% 29.92 in 10.0 mi NNW 11.5 mph 17.3 mph N/A   Overcast
8:35 PM 44.6 °F 37.8 °F 35.6 °F 71% 29.93 in 10.0 mi NNW 15.0 mph 20.7 mph N/A   Overcast
8:55 PM 42.8 °F 34.3 °F 37.4 °F 81% 29.93 in 10.0 mi NNW 19.6 mph 28.8 mph N/A   Overcast
9:15 PM 41.0 °F 32.2 °F 37.4 °F 87% 29.94 in 10.0 mi NNW 18.4 mph 28.8 mph N/A   Overcast
9:35 PM 39.2 °F 31.2 °F 39.2 °F 100% 29.95 in 10.0 mi NNW 13.8 mph 21.9 mph N/A Rain Light Rain
9:55 PM 39.2 °F 30.8 °F 39.2 °F 100% 29.95 in 10.0 mi NNW 15.0 mph 19.6 mph N/A Rain Light Rain
10:15 PM 39.2 °F 31.6 °F 39.2 °F 100% 29.96 in 10.0 mi NNW 12.7 mph 17.3 mph N/A   Overcast
10:35 PM 39.2 °F 32.5 °F 39.2 °F 100% 29.96 in 10.0 mi NNW 10.4 mph - N/A Rain Light Rain
10:55 PM 39.2 °F 33.0 °F 39.2 °F 100% 29.97 in 10.0 mi NNW 9.2 mph - N/A Rain Light Rain
11:15 PM 39.2 °F 31.2 °F 39.2 °F 100% 29.97 in 10.0 mi NNW 13.8 mph 19.6 mph N/A Rain Light Rain
11:35 PM 39.2 °F 31.6 °F 39.2 °F 100% 29.97 in 10.0 mi NNW 12.7 mph 19.6 mph N/A Rain Light Rain
11:55 PM 39.2 °F 32.0 °F 39.2 °F 100% 29.97 in 10.0 mi NNW 11.5 mph - N/A Rain Light Rain